Location: Edinburgh
(55.9500°N, 3.1600°W)
Time: 11:15:34
(UTC+01:00)

AO-91 - Pass Details

Date: 05 June 2024
Orbit: 442 x 732 km, 97.6° (Epoch: 16 June)

Event Time Altitude Azimuth Distance (km) Brightness Sun altitude
Rises 23:48:20 0° 11° (N) 3,033 ? -9.4°
Reaches altitude 10° 23:50:35 10° 5° (N) 2,151 ? -9.5°
Maximum altitude 23:55:06 45° 294° (WNW) 971 ? -9.7°
Drops below altitude 10° 23:59:48 10° 223° (SW) 2,228 ? -9.9°
Sets 00:02:10 0° 217° (SW) 3,154 ? -10.0°
